Flag for Norfolk Island Weather past 2 weeks in Kingston, Norfolk Island

Now
59 °F

Mostly cloudy.


Feels Like: 56 °F
Forecast: 60 / 63 °F
Wind: 17 mph from South

Location: Norfolk Island Airport

Current Time: Jul 4, 2015 at 10:13:24 PM

Latest Report: Jul 4, 2015 at 9:30 PM


Visibility: N/A

Pressure: 30.01 "Hg

Humidity: 59%

Dew point: 45 °F

Location of KingstonLocation

Historic Weather in Kingston — Graph

°F

Kingston temperature yesterday

Maximum temperature yesterday: 66 °F (at 2:00 PM)
Minimum temperature yesterday: 59 °F (at 10:00 PM)
Average temperature yesterday: 63 °F

Past Weeks' High & Low Weather Summary

 TemperatureHumidityPressure
High68 °F (Jun 20, 1:00 PM)100% (Jun 20, 9:30 AM)30.39 "Hg (Jun 20, 9:30 AM)
Low54 °F (Jun 25, 12:30 AM)43% (Jun 25, 11:00 AM)29.71 "Hg (Jul 4, 2:00 AM)
Average61 °F67%30.16 "Hg
* Reported Jun 19 8:30 PM — Jul 4 9:00 PM, Kingston, Weather by CustomWeather, © 2015

Note: Actual official high and low records may vary slightly from our data, if they occured in-between our weather recording intervals... More about our weather records

Advertising

Kingston weather history for previous 24 hours

 ConditionsComfort  
Time TempWeatherWind HumidityBarometerVisibility
9:00 PM
Sat, Jul 4
59 °FPassing clouds.16 mph51%30.01 "HgN/A
8:30 PM61 °FMostly cloudy.18 mph48%30.01 "HgN/A
8:17 PM61 °FOvercast.17 mph55%30.01 "HgN/A
7:31 PM59 °FPassing clouds.21 mph48%29.98 "HgN/A
7:00 PM59 °FPassing clouds.22 mph55%29.95 "HgN/A
6:30 PM61 °FPassing clouds.21 mph52%29.95 "HgN/A
6:00 PM61 °FPassing clouds.18 mph59%29.92 "HgN/A
5:30 PM61 °FPassing clouds.23 mph63%29.92 "HgN/A
5:00 PM61 °FScattered showers. Passing clouds.20 mph72%29.92 "HgN/A
4:30 PM63 °FScattered showers. Passing clouds.21 mph59%29.89 "HgN/A
4:00 PM63 °FBroken clouds.23 mph59%29.89 "HgN/A
3:30 PM63 °FPassing clouds.24 mph64%29.86 "HgN/A
2:30 PM63 °FScattered showers. Passing clouds.21 mph68%29.86 "HgN/A
2:00 PM61 °FRain showers. Scattered clouds.21 mph77%29.86 "HgN/A
1:30 PM61 °FSprinkles. Passing clouds.23 mph72%29.86 "HgN/A
12:35 PM61 °FSprinkles. Passing clouds.21 mph77%29.86 "HgN/A
12:30 PM63 °FSprinkles. Scattered clouds.21 mph73%29.86 "HgN/A
11:30 AM63 °FScattered showers. Passing clouds.23 mph73%29.86 "HgN/A
11:00 AM63 °FScattered showers. Passing clouds.22 mph68%29.86 "HgN/A
10:30 AM61 °FSprinkles. Passing clouds.23 mph83%29.86 "HgN/A
10:00 AM63 °FScattered showers. Passing clouds.20 mph68%29.83 "HgN/A
9:30 AM61 °FSprinkles. Passing clouds.20 mph83%29.83 "HgN/A
9:00 AM61 °FScattered showers. Passing clouds.18 mph77%29.80 "HgN/A
8:34 AM61 °FScattered showers. Passing clouds.22 mph72%29.80 "HgN/A
8:30 AM61 °FScattered showers. Passing clouds.23 mph68%29.80 "HgN/A
8:00 AM61 °FPassing clouds.20 mph68%29.77 "HgN/A
7:30 AM59 °FScattered showers. Passing clouds.22 mph82%29.77 "HgN/A
6:30 AM59 °FPassing clouds.18 mph77%29.74 "HgN/A
6:00 AM59 °FPassing clouds.15 mph77%29.71 "HgN/A
5:30 AM59 °FPassing clouds.18 mph72%29.71 "HgN/A
5:00 AM59 °FPassing clouds.16 mph72%29.71 "HgN/A
4:30 AM59 °FPartly cloudy.13 mph72%29.71 "HgN/A
4:00 AM59 °FPassing clouds.15 mph77%29.71 "HgN/A
3:30 AM59 °FPartly cloudy.13 mph77%29.71 "HgN/A
3:00 AM57 °FOvercast.13 mph82%29.71 "HgN/A
2:30 AM59 °FPartly cloudy.9 mph82%29.71 "HgN/A
2:00 AM55 °FPassing clouds.2 mph94%29.71 "HgN/A
1:30 AM57 °FOvercast.14 mph88%29.74 "Hg3 mi
12:31 AM59 °FOvercast.12 mph77%29.74 "HgN/A
12:00 AM63 °FMostly cloudy.10 mph68%29.74 "HgN/A
11:30 PM
Fri, Jul 3
61 °FSprinkles. Partly cloudy.10 mph77%29.74 "HgN/A
11:00 PM61 °FPassing clouds.12 mph77%29.74 "HgN/A
10:30 PM59 °FPassing clouds.12 mph77%29.77 "HgN/A
10:00 PM59 °FPassing clouds.10 mph88%29.77 "HgN/A
Weather by CustomWeather, © 2015

See weather overviewHow to use our weather pages